ASTRA 3B

Last updated on Jan. 27, 2020, 4:38 a.m. UTC

1 36581U 10021A   20026.78123618  .00000131  00000-0  00000+0 0  9997
2 36581   0.0278  39.0613 0003360 270.0310 121.1427  1.00271755 35250
UTC
Height (km)
Latitude
Longitude
Inclination
Orbital Period
UTC large
Height (km)
Speed (km/s)
/
Latitude / Longitude
Inclination (degrees)
Orbital Period (minutes)
Azimuth
Elevation
Range (km)
Doppler Factor
iOS Compass Heading
iOS Angle

Next 30 passes for location: Hong Kong

Rise time Rise Azimuth (degrees) Set time Set Azimuth (degrees) Duration Max altitude (degrees)

No matching passes for this satellites